GFSFLT2_con_mucape_000.txt.gz
CAPE
0 0 0 0 0 0 26 39 22 1 1 0 0 15 0 32 91 204 637 576 359 633 864 1136 1381 1895 2553 3278 3059 3142 3067 3414
0 0 0 0 0 0 2 67 0 4 12 0 7 0 0 25 115 236 573 662 418 549 774 1043 1312 1606 2027 2541 3149 2886 2865 3048
0 0 0 0 0 0 1 4 12 22 1 0 0 0 0 3 124 159 448 762 705 518 618 1031 1135 1396 1873 2296 2623 2859 2836 3425
0 0 0 0 0 0 2 1 10 9 0 0 0 0 0 0 8 10 260 733 909 808 791 912 1251 1216 1541 1939 2382 2695 3304 3540
0 0 0 0 0 0 0 2 96 14 0 0 0 0 0 49 84 99 442 767 1079 1076 1174 1208 1242 1862 1606 1984 2181 2361 2767 2902
0 0 0 0 0 0 0 3 1 5 26 6 0 0 0 0 96 210 691 903 1224 1254 1514 1578 1941 2671 2728 2039 2192 2382 2483 2869
0 0 0 0 0 0 0 0 3 0 8 11 1 0 0 0 4 238 865 967 1321 1500 2493 2777 2740 2870 2583 2360 2402 2460 2670 2713
35 8 7 4 0 0 0 0 0 0 0 0 0 0 0 0 0 289 1017 1103 1419 1670 1938 2312 2362 2491 2564 2594 2495 2641 2819 2892
216 111 66 63 11 3 0 0 0 0 0 0 0 0 0 1 123 332 960 1135 1298 1635 1849 2315 2444 2685 2635 2645 2599 2681 2893 3024
342 289 247 1 1 0 0 0 0 0 0 0 0 0 15 153 81 349 966 1149 1281 1389 1751 2013 1974 2102 2180 2333 2541 2734 2980 2999
204 290 134 31 196 28 3 0 0 0 0 0 0 3 294 192 181 516 1033 1355 1392 1329 1605 1842 1565 1804 1903 2096 2360 2557 2764 2824
298 197 174 566 323 222 315 80 0 0 0 0 9 42 1 361 125 246 755 984 1177 1086 1399 1362 1377 1506 1874 2058 2385 2624 2728 2656
271 310 301 444 265 400 352 51 4 44 117 160 243 406 538 417 490 691 1052 1164 1246 1161 1102 1333 1373 1626 1856 2080 2341 2514 2695 2494
303 362 331 166 440 665 658 457 448 455 522 528 495 737 849 873 1058 1126 1058 896 820 1307 1703 1716 1748 2005 2283 2430 2671 2805 2776 2134
284 208 218 100 275 457 589 615 600 605 564 577 534 632 720 734 735 767 728 742 870 1433 1904 2162 2370 2381 2698 3294 3053 2911 2274 2245
510 243 70 38 66 185 323 374 360 374 330 384 366 413 473 580 819 1125 1291 1141 1137 1312 1791 2409 2530 2653 3047 2568 2637 2721 2174 2059
280 105 17 9 8 14 86 114 206 253 275 313 617 833 1116 1288 1270 1295 1391 1323 1247 1437 2031 2337 2405 2426 2318 2245 2191 2190 1987 1767
137 123 46 0 15 2 6 44 41 75 63 76 163 264 516 960 1295 1478 1765 1802 1869 1966 2300 2401 2416 2400 2419 2133 2181 2108 2143 1717
79 45 45 8 0 10 12 14 1 14 66 81 59 56 23 31 86 156 767 1023 1948 1849 2070 2163 2298 2304 2288 2302 2047 1813 1699 1650

GFSFLT2_con_mucape_003.txt.gz
CAPE
0 0 0 0 0 0 24 67 57 53 54 23 32 75 62 28 9 27 285 679 609 494 861 1530 1655 2436 2919 3787 4357 4577 3631 4870
0 0 0 0 0 0 7 74 71 75 68 62 53 8 5 31 14 12 51 657 662 485 625 1252 1245 1881 2780 3557 4249 4017 4185 4459
0 0 0 0 0 0 1 29 37 70 74 53 59 38 0 3 5 37 58 491 786 567 551 845 918 1472 1980 2745 3842 4045 4184 4125
0 0 0 0 0 0 25 35 21 72 71 29 8 3 4 14 18 31 77 290 652 726 522 650 1262 1077 1293 1712 2069 3138 3961 4437
0 0 0 0 0 0 0 12 132 44 4 23 11 12 43 17 0 6 82 119 589 660 892 888 1054 1305 1056 1623 1503 2028 3433 3525
0 0 0 0 0 0 0 0 7 11 47 87 65 10 1 0 0 8 58 493 535 832 1285 1350 1521 1763 1695 1565 1289 1724 2408 2764
0 0 3 0 0 0 0 0 1 4 40 37 83 70 15 3 0 0 1 369 968 1201 2285 2469 2198 2452 2362 1978 2363 2186 3204 3068
0 0 0 2 3 0 0 0 0 0 1 18 17 86 34 0 0 0 0 15 937 1442 1821 3052 2824 3157 3048 2942 3022 3070 3899 3782
161 66 93 72 0 0 1 1 0 0 0 0 15 64 97 16 0 2 64 94 478 1373 1834 2511 2507 3440 3417 3635 3390 3787 4306 4408
143 330 239 0 99 58 30 22 13 8 0 0 15 33 50 13 1 66 174 171 229 1086 1823 2730 2288 2308 2919 3085 4095 4370 4529 4541
281 406 273 221 541 440 500 195 29 24 1 0 1 2 16 0 0 2 27 224 432 1392 1839 3427 3038 3569 3734 3439 3895 4181 4002 4551
450 266 326 171 700 508 402 211 15 45 49 0 3 65 11 1 30 408 462 246 860 1648 2098 2744 3289 2763 3344 2911 3469 3936 4035 4265
78 216 179 845 502 547 429 417 1114 844 628 308 20 61 685 640 432 523 565 1380 2020 2028 2883 3243 3132 2538 3197 3071 3062 3100 3221 3339
90 142 183 549 556 575 1070 886 1008 993 864 1062 48 631 747 858 939 1010 1215 1600 1712 2228 2590 2520 2879 3082 3368 3566 3724 3908 3752 3447
101 268 916 714 891 840 831 892 1002 1071 962 895 1028 938 1059 1290 1534 1626 1624 1671 1537 1503 2454 2458 3096 3318 3693 4535 4370 4062 3919 3065
552 662 586 672 599 591 621 705 759 1003 1079 1138 1215 1152 1050 931 891 844 965 1290 1339 1598 2156 2697 3180 2822 3591 3528 3599 3661 2900 2466
767 533 331 182 231 230 309 432 419 650 830 1245 1144 1104 1195 1517 1596 1197 1141 1161 1419 1705 2136 2440 2832 3240 2973 3261 3388 2756 2429 2373
521 560 298 0 0 8 39 55 140 166 398 633 852 937 1125 1378 1399 1370 1375 1458 1773 1733 2224 2559 2762 2890 2829 2892 3005 3071 2670 2560
157 81 0 0 0 37 6 0 0 0 0 1 0 9 32 123 277 319 1068 1251 1475 1606 1940 2358 2606 2899 2694 3067 2940 2678 2513 2362

GFSFLT2_con_mucape_006.txt.gz
CAPE
0 0 0 0 0 0 0 0 7 17 43 12 78 176 11 0 58 112 663 777 715 1010 1144 1578 1626 1945 2409 3423 3903 4210 4212 4173
0 0 0 0 0 0 0 2 18 12 53 122 137 294 130 74 39 51 91 852 923 834 1398 1569 1751 1851 2532 2946 3889 4278 4214 4215
0 0 0 0 0 0 0 0 7 30 29 124 487 522 390 123 37 24 54 685 700 968 1039 1662 1891 1912 2231 2631 3666 4130 4219 4151
0 0 0 0 0 0 0 0 0 0 5 19 252 273 59 56 35 43 55 185 609 1099 950 1348 1643 1753 2144 2602 3233 3768 3972 4103
0 0 0 0 0 0 0 0 8 5 0 0 94 20 209 95 63 223 97 742 734 961 1079 1135 1298 1575 1932 2342 2758 3632 3793 3837
0 0 0 0 0 0 0 0 0 0 7 38 266 112 178 172 141 137 539 1531 988 977 1324 1092 1310 1530 1780 2095 2361 3029 3398 3514
0 0 0 0 0 0 0 0 0 0 0 130 165 325 149 130 183 246 467 1167 1395 1697 1867 1603 1677 1655 1628 1692 1851 2084 2980 3479
0 0 0 5 0 0 0 0 0 0 0 0 48 80 458 191 185 240 269 323 1473 1756 2678 3069 2035 1862 1623 1580 1666 1956 2497 2932
0 0 1 22 0 2 0 0 0 0 0 0 24 149 386 657 294 268 212 306 749 2044 2196 2485 2677 2102 1747 1701 1914 1966 2718 2983
32 160 82 0 0 1 1 1 0 0 0 0 0 7 19 20 89 135 325 157 251 24 2129 2803 2820 2269 2257 2127 2416 2374 3885 3379
234 273 48 36 44 96 42 16 6 4 45 4 0 0 1 0 0 22 6 698 388 54 662 2759 2845 2786 3152 2704 2547 3865 3544 4180
179 82 177 262 460 351 331 238 821 773 632 427 123 34 0 13 65 30 4 61 1062 1165 1337 3201 3335 2997 3180 3471 3238 3121 4110 4405
65 44 0 457 380 216 417 469 883 825 841 801 618 813 1087 1189 1930 1538 264 578 952 2823 3010 3586 3637 3414 3398 3566 3765 3715 4535 4557
204 395 330 523 111 213 892 800 707 675 779 870 1143 1125 1009 854 1228 1365 1277 686 2009 4164 4416 4217 4052 4062 4215 4253 4459 4620 4556 4704
22 23 260 942 1179 856 759 770 1149 1435 1053 702 668 828 1106 1146 1351 1530 1297 2249 2325 3604 4212 4361 4474 3991 4091 4425 4265 4164 4194 4476
158 324 908 803 582 530 697 1119 1149 1189 1310 1536 1516 1206 1288 1433 1691 2162 2513 2826 2777 2934 3252 3783 3856 4089 4332 4276 4228 4115 4068 3337
269 1421 863 694 600 615 604 744 694 829 1050 1059 1173 1241 1535 2102 2295 2519 2616 2831 3295 3511 3829 4095 4517 4167 4229 4437 4300 3549 2942 2574
770 867 778 487 238 43 30 127 79 381 479 518 611 533 614 1118 1202 1477 1889 2115 2509 3281 3441 3136 3485 3866 4068 4046 3478 2982 2551 2344
70 125 33 13 0 0 0 0 0 0 45 78 364 254 200 263 503 924 1417 2372 2902 3127 3394 3436 3336 3230 3548 3707 3156 3013 2652 2650

GFSFLT2_con_mucape_009.txt.gz
CAPE
0 0 0 0 0 0 0 0 0 0 0 0 1 28 96 67 201 178 41 153 182 190 461 708 775 1504 1543 2482 2521 2607 2796 2684
0 0 0 0 0 0 0 0 0 0 0 0 0 25 61 59 63 53 6 49 186 233 462 717 851 1296 1638 2216 2696 2893 2567 2966
0 0 0 0 0 0 0 0 0 0 0 0 0 36 148 90 41 53 25 73 255 250 423 823 986 1254 1604 2169 2750 2977 3073 2949
0 0 0 0 0 0 0 0 0 0 0 0 0 132 181 151 86 48 5 46 222 364 484 978 1144 1124 1575 2623 2755 3040 3196 3122
0 0 0 0 0 0 0 0 0 0 0 0 0 0 12 30 36 18 14 436 534 480 843 1115 1190 1161 1578 2194 3041 3236 3359 3255
0 0 0 0 0 0 0 0 0 0 0 0 0 20 21 39 22 9 28 244 638 692 1001 1108 1358 1320 1312 1917 2793 3248 3499 3376
0 0 0 0 0 0 0 0 0 0 0 0 0 101 66 98 95 54 140 463 713 798 730 1197 1353 1421 1450 1650 1991 2940 3228 3330
0 0 0 0 0 0 0 0 0 0 0 0 0 0 303 173 54 7 424 887 672 995 768 826 1144 1366 1498 1632 1934 2288 2962 3132
0 0 0 0 0 0 0 0 0 0 0 0 0 0 41 82 164 24 20 601 715 854 1507 848 957 1153 1368 1587 1705 2100 2571 2952
0 0 0 0 0 0 0 0 0 0 0 0 0 0 7 0 73 14 3 27 351 700 1085 1924 1121 1110 1296 1446 1743 1941 2109 2709
0 0 0 0 0 0 3 0 36 286 158 2 0 0 0 0 0 0 0 15 0 361 1030 1480 1818 1333 1181 1301 1565 1736 1809 2075
0 0 0 0 52 239 148 206 730 560 487 372 264 82 24 433 984 73 6 0 0 47 39 1577 1927 2005 1683 1378 1322 1390 1500 1895
27 0 0 78 257 208 162 468 489 398 439 545 460 479 466 476 1084 1221 936 526 69 247 626 1659 2020 2156 2021 1755 1522 1637 1402 2782
86 91 53 436 353 413 658 961 1193 1184 1408 654 497 392 518 841 1022 1226 991 882 3042 1358 1945 2357 2445 2479 2347 1895 1867 3109 3429 4164
13 127 366 441 614 483 543 951 1004 1136 1559 1289 1379 1654 1824 1422 1362 1585 2108 3051 3236 3632 3892 3769 3031 3015 3591 3909 3786 3816 4293 4288
127 0 186 146 181 859 670 331 554 1003 1144 1200 1269 1463 1607 1873 2298 2404 2607 3031 3069 3159 3418 3652 3671 3754 3866 3866 3873 4021 4008 4125
142 561 680 609 501 518 398 236 514 836 1105 1285 1402 1288 1354 1494 1706 2111 2543 2916 3028 3172 3612 3576 3493 3542 3550 3645 3733 3830 3798 3485
151 308 371 380 162 172 205 201 389 654 885 1072 1059 998 913 937 878 1133 1088 1551 3086 3361 3368 3475 3654 3602 3438 3338 3334 3265 2678 2807
85 260 330 25 32 68 76 25 0 46 250 354 314 362 373 328 270 259 298 222 1101 2166 2695 2974 3248 3119 2823 2778 2820 2809 2685 2400

GFSFLT2_con_mucape_012.txt.gz
CAPE
0 0 0 0 0 0 0 0 0 0 0 0 0 0 0 8 32 22 124 116 67 50 78 160 257 582 910 1342 1240 1374 1573 1274
0 0 0 0 0 0 0 0 0 0 0 0 0 0 0 13 17 39 114 200 101 31 126 279 256 633 1049 1420 1454 1656 1821 1651
0 0 0 0 0 0 0 0 0 0 0 0 0 0 0 11 31 36 147 225 141 99 125 310 391 810 1203 1449 1449 1754 1976 1894
0 0 0 0 0 0 0 0 0 0 0 0 0 0 0 0 23 207 284 207 153 158 125 291 572 953 1157 1668 1676 1772 2108 2111
0 0 0 0 0 0 0 0 0 0 0 0 0 0 0 0 19 80 209 236 186 86 241 345 619 828 1282 1640 1950 2093 2182 2228
0 0 0 0 0 0 0 0 0 0 0 0 0 0 0 0 39 101 95 71 9 109 167 470 703 864 1334 1533 2163 2240 2454 2428
0 0 0 0 0 0 0 0 0 0 0 0 0 0 0 0 36 154 145 2 18 96 283 596 874 924 1256 1708 1989 2331 2497 2677
0 0 0 0 0 0 0 0 0 0 0 0 0 0 0 0 0 11 62 17 127 169 383 642 939 1013 1137 1580 2257 2372 2620 2705
0 0 0 0 0 0 0 0 0 0 0 0 0 0 0 0 0 1 28 152 312 418 564 668 966 1094 1107 1552 2117 2564 2713 2881
0 0 0 0 0 0 0 0 0 0 0 0 0 0 0 0 0 0 0 23 474 568 597 788 999 1186 1263 1372 1866 2490 2635 2864
0 0 0 0 0 0 0 0 0 0 0 0 0 0 0 0 0 0 0 0 264 682 797 828 940 1163 1349 1415 1651 1948 2383 2629
0 0 0 0 0 7 0 227 307 3 0 0 0 0 0 0 564 0 0 0 0 114 486 1206 780 936 1166 1376 1591 1744 1990 2324
0 0 0 22 33 98 53 108 274 88 17 0 9 33 35 77 667 578 316 42 0 0 14 367 1278 992 901 1060 1314 1609 1864 2063
0 3 153 23 130 80 400 1000 930 985 578 851 1053 1126 1087 598 649 811 480 505 1580 256 0 0 608 1257 1069 917 1044 1370 1595 1817
0 29 31 75 245 993 962 863 845 834 761 877 1073 1288 1531 1903 2146 2309 2299 2006 2389 2266 1012 2197 932 1338 1266 1274 1193 1171 1345 1576
0 4 91 540 690 704 593 754 795 693 633 721 1099 1414 1721 1908 2039 2205 2430 2816 2920 2950 3016 2808 2447 1779 1449 1325 1384 1571 2567 3021
0 0 122 588 562 559 415 662 885 977 938 917 924 1089 1403 1743 1971 2140 2287 2347 2453 2409 2669 2886 2886 3166 3045 2839 3201 3069 2730 2566
107 0 28 220 553 499 346 381 485 642 630 740 934 992 1092 1250 1302 1455 1532 1585 1410 1172 1075 924 1309 1913 3572 3427 2980 2582 2440 2607
42 0 11 113 34 28 153 148 301 468 189 280 317 390 466 563 574 468 433 449 409 375 325 259 95 12 2796 3099 2745 2935 3010 3255

GFSFLT2_con_mucape_015.txt.gz
CAPE
0 0 0 0 0 0 0 0 0 0 0 0 0 0 0 0 0 0 0 1 29 69 65 89 201 303 576 582 551 907 1165 1166
0 0 0 0 0 0 0 0 0 0 0 0 0 0 0 0 0 0 0 2 15 74 91 70 103 194 421 640 601 564 919 1143
0 0 0 0 0 0 0 0 0 0 0 0 0 0 0 0 0 0 0 0 11 66 130 122 67 86 334 671 701 655 732 944
0 0 0 0 0 0 0 0 0 0 0 0 0 0 0 0 0 0 0 0 5 63 142 130 75 86 328 605 827 769 861 1026
0 0 0 0 0 0 0 0 0 0 0 0 0 0 0 0 0 0 0 0 0 0 56 179 92 128 348 670 900 931 1053 1180
0 0 0 0 0 0 0 0 0 0 0 0 0 0 0 0 0 0 0 1 2 0 111 196 127 206 459 782 976 1049 1220 1391
0 0 0 0 0 0 0 0 0 0 0 0 0 0 0 0 0 0 0 1 38 83 85 265 160 284 582 800 1180 1178 1294 1552
0 0 0 0 0 0 0 0 0 0 0 0 0 0 0 0 0 0 0 0 95 186 251 153 130 327 544 1011 1243 1460 1521 1640
0 0 0 0 0 0 0 0 0 0 0 0 0 0 0 0 0 0 0 0 0 89 39 57 186 426 581 1090 1225 1768 1768 1866
0 0 0 0 0 0 0 0 0 0 0 0 0 0 0 0 0 0 0 0 0 34 4 127 361 628 721 1043 1398 1755 1976 2005
0 0 0 0 0 0 0 0 0 0 0 0 0 0 0 0 0 0 0 0 0 0 92 250 509 791 922 1004 1397 1895 2039 2173
0 0 0 0 0 0 0 0 0 0 0 0 0 0 0 0 0 0 0 0 0 0 272 367 628 977 1082 1099 1410 1959 2240 2306
0 0 0 0 0 35 1 0 0 0 0 0 0 0 0 0 40 194 43 210 98 0 322 647 802 1084 1214 1228 1252 1645 2095 2401
0 0 0 21 71 117 173 110 230 88 168 166 260 457 685 1081 1206 1185 1130 1483 1980 2033 1726 1047 478 789 1110 1263 1371 1431 1691 1902
0 0 17 28 154 406 669 606 508 565 784 791 940 966 1014 1301 1456 1717 1960 1949 1842 1888 1658 1708 2353 1174 761 949 1268 1445 1530 1645
61 10 25 108 225 326 601 673 634 630 821 974 1113 1183 1174 1313 1390 1507 1859 2090 2098 1780 1492 1353 1043 2478 2419 1886 1462 1074 1300 1530
96 36 20 83 294 267 405 773 599 634 934 1165 1260 1146 1069 1193 1442 1643 1664 1535 1718 1958 1669 1408 1365 1022 946 2084 2375 1583 1222 1259
18 58 4 17 175 318 326 670 839 889 922 986 1040 1174 1280 1269 1287 1418 1436 1107 1028 1084 1035 1081 1144 1170 1041 933 754 2538 1782 2123
307 75 0 0 59 2 607 404 472 501 378 602 594 573 627 600 574 488 357 257 244 475 182 238 510 267 53 36 491 1208 2482 2177

GFSFLT2_con_mucape_021.txt.gz
CAPE
0 0 0 0 0 0 0 0 0 0 0 0 0 0 0 0 0 101 443 736 876 1258 1482 1543 1627 1549 1478 1445 1673 1881 1877 1959
0 0 0 0 0 0 0 0 0 0 0 0 0 0 0 0 0 0 0 217 594 995 1229 1321 1294 1632 1470 1464 1677 1819 1897 1929
0 0 0 0 0 0 0 0 0 0 0 0 0 0 0 0 0 0 7 7 132 566 996 1244 1087 1222 1419 1425 1701 1930 1995 2027
0 0 0 0 0 0 0 0 0 0 0 0 0 0 0 0 0 0 22 86 77 144 356 687 1218 1099 1288 1348 1494 1759 1929 2093
0 0 0 0 0 0 0 0 0 0 0 0 0 0 0 0 0 0 0 19 75 51 128 509 821 1170 1180 1165 1257 1343 1794 1945
0 0 0 0 0 0 0 0 0 0 0 0 0 0 0 0 0 0 0 1 65 108 573 581 763 1007 1073 1213 1196 1326 1513 1818
0 0 0 0 0 0 0 0 0 0 0 0 0 0 0 0 0 0 0 0 0 2 662 913 893 1035 1075 1084 1404 1502 1774 1741
0 0 0 0 0 0 0 0 0 0 0 0 0 0 0 0 0 0 0 0 0 0 171 446 849 1122 1090 1158 1334 1590 1878 1873
0 0 0 0 0 0 0 0 0 0 0 0 0 0 0 0 0 0 0 0 0 0 81 554 632 1108 1133 1260 1411 1656 1570 2019
0 0 0 0 0 0 0 0 0 0 0 0 0 0 0 0 0 0 0 0 0 0 0 774 337 360 1010 1139 1584 1754 1956 2189
0 0 0 0 0 0 0 0 0 0 0 0 0 0 0 0 0 0 0 0 0 0 0 333 598 1083 1398 1434 1685 1867 1983 2202
0 0 0 0 0 0 0 0 0 0 2 0 0 0 0 0 0 0 0 0 0 0 0 29 182 279 1276 1292 1672 2060 2170 2248
0 0 0 0 0 65 10 0 0 0 0 68 88 0 0 0 10 215 316 0 0 10 394 510 658 486 1517 1643 1986 1864 2024 2314
0 0 0 0 0 0 91 62 38 25 0 0 56 256 0 375 1036 1589 1496 604 396 1133 1439 1310 987 1458 1582 1877 1882 2134 2345 2680
0 0 0 0 0 11 117 87 65 26 57 47 82 356 311 1005 1076 933 595 690 1563 1479 1017 1093 1472 1890 2047 2042 1885 2159 2500 3096
0 0 0 0 0 20 82 60 42 32 114 245 232 218 566 513 772 697 499 346 236 219 256 441 523 656 947 1167 2235 2314 2467 2908
41 4 0 0 0 25 95 29 68 71 244 529 393 145 480 703 730 697 639 552 431 322 399 284 335 285 126 137 218 511 1564 2353
0 24 30 0 25 100 93 133 76 46 332 766 715 779 909 853 609 317 366 380 605 818 792 482 89 91 114 179 153 212 344 426
46 13 6 10 7 14 97 208 123 143 487 702 750 690 512 500 482 339 348 630 623 693 473 615 859 822 705 602 685 513 448 334

GFSFLT2_con_mucape_024.txt.gz
CAPE
0 0 0 0 0 0 0 0 0 0 0 0 0 0 0 0 0 0 670 1120 1273 1270 1556 1746 1793 2305 2678 3055 3436 3036 2552 3487
0 0 0 0 0 0 0 0 0 0 0 0 0 0 0 0 0 0 167 869 1087 1279 1376 1662 1848 1925 2252 2759 3295 3408 2986 3095
0 0 0 0 0 0 0 0 0 0 0 0 0 0 0 0 0 0 33 265 722 973 1199 1342 1658 1986 2085 2261 2813 2683 3190 3390
0 0 0 0 0 0 0 0 0 0 0 0 0 0 0 0 0 0 0 39 96 239 673 1151 1460 1745 2016 2152 2155 2492 2875 3552
0 0 0 0 0 0 0 0 0 0 0 0 0 0 0 0 0 0 0 46 150 121 242 763 1213 1638 1584 1847 1968 1982 2772 2535
0 0 0 0 0 0 0 0 0 0 0 0 0 0 0 0 0 0 0 0 0 31 140 461 1136 2027 2420 1570 1658 1757 1891 2274
0 0 0 0 0 0 0 0 0 0 0 0 0 0 0 0 0 0 0 0 0 47 400 966 1112 1816 2448 1913 1976 1845 2559 2154
0 0 0 0 0 0 0 0 0 0 0 0 0 0 0 0 0 0 0 0 0 0 57 349 914 1355 1446 2260 1893 2122 2885 2826
0 0 0 0 0 0 0 0 0 0 0 0 0 0 0 0 0 0 0 0 0 0 0 58 136 857 1315 1720 1815 2554 2907 3275
0 0 0 0 0 0 0 0 0 0 0 0 0 0 0 0 0 0 0 0 0 0 0 0 3 2 927 1388 2597 2791 3275 3401
0 0 0 0 0 0 0 0 0 0 0 0 0 0 0 0 0 0 0 0 0 0 0 77 0 46 386 1449 1830 2207 3311 3425
0 0 0 0 0 0 0 0 0 0 0 0 35 0 0 0 0 0 0 0 0 0 0 0 15 70 627 1188 1661 2424 3127 2921
0 0 0 0 0 41 0 94 28 5 1 87 299 180 511 544 217 6 1 16 15 0 0 41 390 420 619 1310 1792 2263 2410 2453
0 0 0 0 0 0 53 63 22 22 4 36 271 562 627 703 886 262 83 325 797 6 78 774 1443 1508 1402 2811 2191 2583 2836 2733
0 0 0 0 0 0 0 0 0 0 0 0 1 320 794 1200 822 651 855 1283 1488 799 1623 1966 2277 2369 2469 2454 2427 2547 2759 3175
0 0 0 0 0 0 0 0 0 0 0 0 0 188 923 1193 1082 1152 808 891 1103 1580 1601 2071 2834 3096 3317 3097 2920 3072 3267 3406
0 36 19 12 0 0 0 9 1 0 2 1 4 28 993 1077 833 550 353 506 998 1128 1196 1295 1265 1139 1061 1198 1538 2956 3161 3181
0 22 31 34 22 9 21 3 2 2 0 60 29 213 277 111 351 514 729 1018 1183 1146 1125 865 902 1185 1481 1474 1569 1359 1152 1041
46 83 82 74 51 0 0 0 0 4 83 100 178 349 443 398 512 582 508 551 602 724 1105 1380 698 628 778 1399 1268 1312 1249 1203

GFSFLT2_con_mucape_027.txt.gz
CAPE
0 0 0 0 0 0 0 0 0 0 0 0 0 0 0 0 4 44 249 613 1135 1348 1564 1805 1567 2275 2657 3347 3991 4148 3889 4147
0 0 0 0 0 0 0 0 0 0 0 0 0 0 0 0 0 0 51 512 1029 1262 1548 2000 1569 1980 2636 3175 3902 4030 3846 4014
0 0 0 0 0 0 0 0 0 0 0 0 0 0 0 0 0 0 0 331 935 1261 1418 1742 1770 1674 2103 2863 3658 3994 3889 3921
0 0 0 0 0 0 0 0 0 0 0 0 0 0 0 0 0 0 0 150 776 1036 1166 1293 1694 1900 2032 2266 2423 3703 3735 4051
1 0 0 0 0 0 0 0 0 0 0 0 0 0 0 0 0 0 0 56 311 800 965 1114 1326 2170 2021 2511 2221 2244 3341 3507
0 0 0 0 0 0 0 0 0 0 0 0 0 0 0 0 0 0 2 32 132 156 187 717 1426 2395 2879 2280 2298 2352 2555 2825
0 4 0 0 0 0 0 0 0 0 0 0 0 0 0 0 0 0 0 0 0 18 180 611 1795 2852 3022 2312 2731 2641 3274 3276
0 0 0 0 0 0 0 0 0 0 0 0 0 0 0 0 0 0 0 0 0 0 0 476 848 2085 2558 3291 2740 2674 3536 3382
5 0 0 0 0 0 0 0 0 0 0 0 0 0 0 0 0 0 0 0 0 0 0 47 443 810 1344 2903 3011 3016 3278 3948
0 5 0 0 0 0 0 0 0 0 0 0 0 0 0 0 0 0 0 0 0 0 0 0 0 0 1042 1052 3411 3665 3845 3718
0 0 0 0 0 0 0 0 0 0 0 0 0 0 0 0 0 0 0 0 0 0 0 49 0 0 0 962 2517 3614 3745 4143
0 0 0 12 0 0 0 0 0 0 0 0 0 0 18 425 384 112 23 11 10 0 0 0 8 0 0 120 1393 3443 3843 4067
0 0 0 19 29 12 0 312 180 11 7 11 25 298 674 694 791 703 710 583 258 347 348 84 67 46 978 1129 1539 2618 3011 3685
0 0 0 0 0 55 26 84 36 25 21 10 49 144 228 405 863 1156 1034 661 102 352 828 417 230 789 2248 2740 2981 3726 3900 4010
0 0 9 0 1 1 0 55 31 1 3 0 0 0 1 259 1114 1453 1149 1263 1216 1330 1113 1229 2193 2362 2572 4149 3558 4047 4421 4652
0 0 0 0 0 0 0 0 0 0 0 0 0 0 6 369 1503 1467 1383 1379 1330 1707 1942 2432 3376 3110 3281 3674 3198 3057 3641 4194
6 0 1 2 2 0 0 0 0 0 1 0 0 0 85 482 1747 1521 1278 1076 1662 1865 2230 2264 2304 2221 2200 2349 3354 3575 3778 3775
2 41 30 5 1 0 0 0 0 0 0 0 0 0 113 403 1089 1566 1481 1696 1943 2052 1762 1633 1876 1951 2027 2053 2097 2215 3133 3449
84 46 41 53 39 26 0 8 0 0 0 0 0 23 200 335 672 562 729 869 1177 1601 1545 1077 936 1071 1643 1810 1894 1941 2055 1996

GFSFLT2_con_mucape_030.txt.gz
CAPE
0 0 0 0 0 0 0 0 0 0 0 0 0 0 0 25 128 118 218 467 1184 1704 1709 1497 1292 1529 1895 2714 3133 3287 2884 3274
0 0 0 0 0 0 0 0 0 0 0 0 0 0 0 6 17 86 225 457 1110 1579 1878 1631 1329 1516 1746 2485 3122 3408 3403 3170
0 0 0 0 0 0 0 0 0 0 0 0 0 0 0 0 0 53 391 588 943 1632 1891 1910 1504 1571 1709 1972 3022 3460 3499 3417
0 0 0 0 0 0 0 0 0 0 13 0 13 0 0 0 0 24 188 796 886 1334 1817 2105 1843 1646 1802 2064 2646 3305 3699 3697
0 4 0 0 0 0 0 0 0 0 0 0 1 21 17 0 109 157 473 549 873 1324 1587 1990 2103 1970 1949 2081 2257 3170 3663 3742
0 0 0 0 0 0 0 0 0 0 0 0 0 0 0 69 114 118 655 606 1029 1216 1636 1847 2188 2375 2268 2138 2322 2542 3430 3690
0 0 7 0 0 0 0 0 0 0 0 0 0 2 0 6 215 309 592 842 1207 1264 1670 1931 2291 2535 2677 2484 2444 2505 2620 3393
6 1 1 4 0 0 0 0 0 0 2 0 0 26 5 33 22 38 71 117 238 494 661 1453 2926 3005 2762 2776 2913 2815 2856 2923
0 1 0 2 2 0 0 0 0 0 11 8 4 22 2 0 0 0 0 0 3 99 588 1014 1441 3500 3232 3052 3090 3470 3296 3377
0 33 6 0 3 1 0 0 0 0 43 200 103 51 0 0 0 0 0 0 68 0 13 496 162 478 1999 3242 3699 3480 4006 3837
0 30 0 9 0 0 0 1 5 4 12 1 0 0 0 0 0 0 0 14 35 0 0 882 435 687 1139 1448 3423 3518 3292 3752
0 45 4 0 0 0 0 1 402 40 0 0 0 0 641 897 763 757 749 991 1329 971 858 455 1589 492 1504 1564 2778 3301 3327 3498
0 0 0 0 0 0 10 121 85 97 113 89 268 839 632 223 446 841 1165 1278 1301 1348 1315 2392 2410 1692 2935 2489 2116 3228 3455 3777
0 0 0 0 0 26 62 83 8 0 0 0 0 0 55 64 291 902 1462 1347 982 1414 1474 2031 1850 2288 2773 3552 4227 4239 4593 4149
0 1 62 0 0 0 0 87 55 0 0 0 0 0 0 277 594 1697 2084 1896 1679 2169 2780 3437 3167 4420 4355 4951 4848 4729 5226 4998
0 0 0 0 0 0 0 0 66 12 0 0 0 0 0 216 475 1434 2315 2031 1510 2116 2816 4430 4845 4804 4775 4964 4386 4626 5171 5377
0 0 0 0 0 0 0 0 27 44 16 0 0 0 0 7 385 930 1769 2463 3102 3361 2996 2888 2878 3368 3540 3488 4160 4356 4562 4849
1 20 49 18 0 0 0 0 0 12 4 0 0 0 0 99 552 733 1106 1526 2364 2724 2215 2400 2309 2241 2574 2555 3146 4330 4902 4560
1 0 0 0 0 0 0 0 0 0 0 0 0 0 0 11 369 408 693 1158 1434 2050 1650 1488 1406 1637 1846 2142 2597 3213 3229 3725

GFSFLT2_con_mucape_033.txt.gz
CAPE
0 0 0 0 0 0 0 0 0 0 0 0 0 0 0 3 76 224 757 896 552 523 677 702 707 1109 1621 1966 1751 1949 2017 1767
0 0 0 0 0 0 0 0 0 0 0 0 0 0 0 0 1 103 860 809 832 723 793 791 793 1009 1235 2095 1868 1859 1790 1959
0 0 0 0 0 0 0 0 0 0 0 0 0 0 0 0 0 0 223 910 1096 896 841 893 880 991 1200 1694 2067 2034 1927 1780
0 0 0 0 0 0 0 0 0 0 0 0 0 0 0 0 0 6 55 844 1317 1182 1084 985 952 943 1137 1382 2115 2172 2216 1908
0 0 0 0 0 0 0 0 0 0 0 0 0 0 0 0 0 0 65 872 1269 1384 1310 1181 1029 969 979 1261 1865 2229 2379 2433
0 0 0 0 0 0 0 0 0 0 0 0 0 0 0 0 4 0 363 718 1125 1348 1483 1385 1166 1069 1033 1065 1460 2230 2452 2594
0 0 0 6 0 0 0 0 0 0 0 0 1 6 17 25 24 96 179 572 1098 1307 1522 1579 1368 1214 1157 1126 1284 1583 2465 2716
0 0 4 4 0 0 0 0 0 0 0 0 2 8 0 0 0 48 271 671 918 1174 1499 1649 1656 1433 1305 1247 1371 1503 2183 2598
0 12 26 1 0 0 0 0 0 0 0 4 14 1 0 0 0 37 59 176 433 692 1255 1617 1734 1791 1657 1590 1510 1655 1773 2303
8 23 2 0 5 6 0 0 0 0 9 0 48 184 32 0 0 5 58 106 270 315 572 947 1590 2041 2002 1967 1969 1797 1881 2000
33 18 0 3 4 8 4 13 19 325 196 101 590 591 432 597 687 647 502 504 531 357 575 296 429 1021 2385 2440 2462 2547 2192 2346
7 8 13 42 0 0 0 19 66 390 354 92 476 411 275 370 577 769 904 911 707 542 277 972 702 407 2028 2668 2581 2643 2897 3125
1 9 11 22 0 0 7 14 80 408 328 414 178 70 79 268 666 1310 1290 1134 658 620 484 556 947 325 365 1195 2278 2792 2627 2562
10 7 35 29 1 5 0 1 43 195 428 176 39 29 145 244 936 1575 1846 1491 1293 1184 1430 1054 715 476 808 2006 2211 2296 2686 2861
21 19 0 0 0 0 0 8 32 40 98 40 1 19 146 198 1275 1276 1358 1780 2152 2360 2383 4001 3514 3410 2813 3308 3468 3086 3764 3213
1 0 0 0 0 0 0 16 35 0 0 0 0 0 5 147 1292 1137 1215 1321 1569 2034 2690 3040 3607 3334 3203 3410 3456 3819 3190 4562
0 0 0 0 0 0 0 0 37 0 0 0 0 0 0 0 55 875 1019 697 864 1431 1920 2264 2422 2717 3272 3433 3507 3436 3832 4672
0 0 0 0 0 0 0 0 17 0 0 0 0 0 0 0 20 178 163 78 137 508 1606 1891 1740 1682 1393 1941 2866 3283 3698 3911
0 0 0 0 0 0 0 0 0 0 0 0 0 0 0 0 0 6 116 250 384 769 1489 1626 1431 1298 1330 1749 1891 2901 3686 3679

GFSFLT2_con_mucape_036.txt.gz
CAPE
0 0 0 0 0 0 0 0 0 0 0 0 0 0 0 22 109 330 289 270 204 337 356 311 477 680 572 524 627 1136 1025 1095
0 4 0 0 0 0 0 0 0 0 0 0 0 0 0 0 116 418 460 353 329 462 415 346 513 747 862 815 720 1174 1205 1005
0 3 0 0 0 0 0 0 0 0 0 0 0 0 0 1 26 328 522 468 485 364 456 465 473 733 1256 1196 1065 1325 1499 1433
0 0 0 0 0 0 0 0 0 0 0 0 0 0 0 0 131 181 262 443 626 529 485 541 541 749 1185 1599 1394 1389 1677 1685
0 0 0 6 0 0 0 0 0 0 0 0 0 0 0 0 0 46 192 354 585 713 562 620 630 729 1055 1598 1679 1559 1586 1608
0 0 0 0 0 0 0 0 0 0 0 0 0 0 0 0 0 0 156 729 783 856 748 711 725 806 921 1147 1846 1729 1720 1710
0 0 0 0 0 0 0 0 0 0 0 0 0 0 0 0 0 0 491 793 800 899 808 801 865 895 959 1103 1524 1900 1924 1939
0 0 0 0 0 0 0 0 0 0 0 0 0 3 5 0 0 0 486 946 1092 1055 1002 1047 1037 991 972 1062 1355 1878 2032 2076
0 0 0 0 0 0 0 0 0 0 0 0 8 84 32 40 118 158 567 1055 1307 1298 1203 1260 1207 1141 1062 1022 1159 1797 2058 2125
0 5 0 0 3 0 0 0 0 0 41 202 533 637 603 448 10 162 368 834 1189 1382 1391 1427 1341 1273 1167 1128 1166 1275 1722 2211
0 11 0 2 5 0 0 0 0 11 355 509 432 413 813 850 717 279 187 518 962 1311 1430 1620 1672 1622 1473 1368 1375 1325 1402 1570
21 15 0 4 20 16 0 0 120 289 513 261 63 355 867 1128 1251 1151 433 211 413 722 1054 1231 1442 1866 1868 1892 1764 1656 1625 1705
24 22 7 14 37 6 48 3 191 383 280 95 127 266 945 1082 1196 1340 1487 1225 1578 2004 1322 770 1076 1116 1997 2076 2109 2019 1903 1800
0 31 50 0 15 14 8 77 73 175 174 14 32 402 953 971 971 1130 1365 2138 3066 2771 2736 2686 1589 1314 2289 2366 2413 2321 2368 2454
0 21 4 0 7 0 8 11 89 119 52 0 24 241 1038 1161 1133 1175 1201 1854 2700 2744 3024 2981 2616 2473 2560 2768 3001 2720 2384 2472
0 1 10 0 0 0 0 82 23 29 22 0 41 58 679 1122 1238 1231 1190 1042 1742 1994 2191 2414 2645 2894 2700 2907 3042 3103 2931 2945
0 0 0 0 1 0 0 1 9 0 0 0 1 102 89 878 1007 987 681 617 683 1629 1545 1782 1738 1795 2057 2183 2574 3160 3040 3755
2 0 0 0 0 0 0 8 32 0 0 0 0 7 61 100 256 539 146 4 300 677 1159 1456 1482 1327 1099 1316 1623 1799 2752 3328
0 0 0 0 0 0 0 0 4 0 0 0 3 0 0 18 49 82 78 0 45 393 837 1228 825 905 1277 1360 1571 1350 2273 2932

GFSFLT2_con_mucape_042.txt.gz
CAPE
0 0 0 0 0 0 0 0 0 0 0 0 0 0 0 144 218 211 266 283 262 252 214 196 161 180 174 79 42 63 27 36
0 0 0 0 0 0 0 0 0 0 0 0 0 0 0 0 48 144 205 249 244 224 246 232 240 238 203 265 195 152 136 76
0 0 0 0 0 0 0 0 0 0 0 0 0 0 0 0 23 84 122 121 116 130 161 184 158 206 224 231 288 245 220 165
0 0 0 0 0 0 0 0 0 0 0 0 0 0 0 0 2 70 95 95 76 66 108 170 182 180 207 207 244 293 298 279
0 0 0 0 0 0 0 0 0 0 0 0 0 0 0 0 0 0 68 95 80 74 56 131 170 175 176 204 236 236 283 290
0 0 0 0 1 1 0 0 0 0 0 0 0 0 0 0 0 0 6 46 66 77 106 172 216 220 218 258 248 246 397 431
0 0 0 0 0 3 0 1 0 0 0 0 0 0 0 0 0 0 0 2 38 70 122 178 237 270 374 358 308 274 357 612
0 0 0 0 0 0 0 0 0 0 0 0 0 0 0 0 1 0 0 0 7 88 160 172 211 318 388 578 520 428 405 671
0 8 0 0 0 0 0 0 0 0 0 0 0 114 55 20 57 132 0 0 0 57 184 188 246 305 373 652 809 765 681 796
0 18 0 0 0 0 0 0 0 0 0 83 25 358 271 133 71 238 191 0 0 91 199 199 273 349 343 723 1184 1148 1069 1100
0 13 0 20 4 3 9 3 0 12 271 660 466 198 371 614 361 835 924 0 15 104 217 228 276 380 425 854 1386 1479 1447 1442
37 56 5 1 3 1 0 4 5 60 328 425 261 161 362 1252 1005 746 837 638 14 120 270 363 415 457 575 822 1211 1599 1647 1669
79 33 48 5 1 1 30 0 14 64 187 256 34 118 1140 1468 1183 1033 1182 1191 528 572 593 594 592 609 647 814 983 1148 1482 1761
82 47 75 67 18 8 0 8 28 133 238 203 251 1112 1358 1531 1627 1338 1062 1020 1152 1116 998 908 884 878 879 870 914 969 1229 1610
55 56 25 91 45 12 1 39 80 221 290 244 397 1011 1249 1728 1724 1859 1613 1672 1662 1432 1428 1432 1410 1438 1588 1940 2000 1309 1301 1390
18 13 126 112 99 19 40 33 108 172 302 425 450 440 507 979 1521 2006 1743 1705 1657 1815 1892 1901 1845 2001 2218 2505 2217 1828 1816 1797
5 28 79 96 88 52 74 114 148 167 299 336 470 371 267 417 754 1123 1413 1764 1609 1533 1511 1644 1895 2059 2178 2425 2586 2536 2768 2812
86 36 52 56 34 72 62 65 172 223 323 360 343 392 274 228 335 368 702 1123 1174 1118 1102 1107 1107 1161 1276 1310 1406 1705 2424 2785
2 1 10 4 60 116 150 150 60 132 337 494 370 225 311 229 175 197 215 325 471 475 659 450 628 818 707 740 883 881 1121 1571

GFSFLT2_con_mucape_045.txt.gz
CAPE
0 0 0 0 0 0 0 0 0 0 0 0 0 0 0 32 279 587 733 662 581 491 527 713 683 735 786 840 811 771 543 1077
0 0 0 0 0 0 0 0 0 0 0 0 0 0 0 0 88 406 624 768 691 640 606 748 633 686 748 773 864 867 760 882
0 0 0 0 0 0 0 0 0 0 0 0 0 0 0 0 0 107 471 703 765 902 910 777 553 685 772 667 908 835 847 882
0 0 0 0 0 0 43 0 0 0 0 0 0 0 0 0 0 5 189 495 755 816 799 818 999 892 766 840 634 821 869 968
0 0 0 0 0 0 0 0 0 0 0 0 0 0 0 0 0 12 135 307 510 468 750 1095 1075 1097 987 915 651 582 922 636
0 0 0 0 0 0 0 1 0 0 0 0 0 0 0 0 0 0 12 182 333 222 582 925 1056 1197 1207 1018 764 770 738 835
0 0 0 0 0 0 0 0 10 1 5 0 0 0 0 0 0 0 0 3 264 352 540 874 1188 1149 1237 1160 1205 1034 1297 1210
0 0 0 0 0 0 0 0 0 0 0 0 0 0 0 0 4 24 50 1 26 296 654 781 1092 1143 1144 1235 1300 1359 1509 1498
0 12 0 0 0 0 0 0 0 0 0 0 0 244 160 124 132 141 209 446 250 3 682 910 1092 1292 1218 1327 1417 1472 1594 1780
0 23 0 3 15 0 6 0 0 0 0 0 77 503 315 24 6 30 118 318 604 314 36 1001 790 881 1246 1277 1571 1595 1726 1892
9 23 39 130 12 5 31 0 0 0 0 83 274 853 672 442 717 306 330 303 922 890 0 849 1049 1360 1520 1703 1732 1747 1837 1961
3 12 61 57 13 2 0 3 0 0 0 363 460 771 198 711 425 750 1005 1111 772 180 5 817 1220 1234 1630 1694 2004 2018 2071 2133
10 12 21 108 85 35 55 5 54 5 28 299 281 206 408 833 1095 1080 891 879 726 493 1038 1222 1450 1471 1814 2099 2312 2170 2078 2183
5 3 4 83 108 85 27 69 68 71 90 258 330 678 1100 1166 1173 1008 801 573 1205 946 1092 1336 1591 1766 2029 2344 2713 2950 3037 2941
0 1 0 29 103 73 54 71 73 57 145 276 554 836 1031 1073 1568 1226 921 769 848 1357 1547 1500 1284 1848 1997 2184 2723 2936 3202 3315
0 0 36 88 70 80 76 65 59 101 187 301 655 714 1062 1324 1709 1644 1410 1181 993 1040 1281 1545 1891 2122 2286 2479 1972 2390 2995 3261
76 7 1 41 29 27 27 40 104 95 221 331 587 931 1031 1140 1157 1158 1318 1834 1404 1324 1337 1437 1647 1829 1989 1971 2630 2300 2231 2503
8 4 39 90 91 18 32 65 68 196 240 319 465 679 686 934 640 849 1035 1170 1409 1564 1630 1743 1800 1923 2076 2112 2175 2445 3255 2691
0 0 0 1 0 33 38 61 87 257 172 396 283 525 356 626 463 636 517 875 974 1171 1312 1395 1395 1495 1325 1216 1251 1466 1902 2368

GFSFLT2_con_mucape_048.txt.gz
CAPE
0 0 0 0 0 0 0 0 0 0 0 0 0 0 0 0 98 212 672 896 1044 1062 867 690 813 1241 1360 1688 1749 1532 1136 2209
0 0 0 0 0 8 3 0 0 0 0 0 0 0 0 0 3 111 581 905 1044 1107 1086 870 824 882 900 968 1559 1342 1144 1292
0 0 0 0 0 4 25 4 0 0 0 0 0 0 0 0 0 26 395 869 1063 1116 1135 1074 870 862 970 1047 1205 1362 1469 1710
0 0 0 0 0 7 13 19 2 4 9 0 0 0 0 0 0 24 124 577 887 952 1032 1111 1095 941 953 1026 1083 1236 1862 2306
0 0 0 0 0 0 0 4 25 15 2 0 0 0 0 0 0 7 58 229 682 725 932 1068 1198 1219 996 991 987 1063 1443 1257
0 0 0 0 0 0 21 2 0 1 13 37 0 0 0 0 0 0 3 54 171 563 743 1150 1414 2168 2022 1230 994 956 1163 1172
0 0 0 0 0 0 0 2 0 1 36 3 15 0 0 0 0 0 0 12 149 293 734 1627 2038 2512 2154 1441 1699 1418 2055 1288
0 0 0 0 0 0 0 0 0 0 0 0 5 0 0 0 0 0 0 0 0 70 329 806 1362 2230 2536 2532 1956 1922 2548 2185
0 0 0 0 0 0 0 0 0 0 0 13 16 4 0 0 0 37 88 123 236 130 79 448 941 1765 2157 2664 2259 2377 2795 2727
39 7 0 0 0 0 0 0 0 0 0 19 22 24 824 526 397 364 334 357 471 548 657 137 544 857 1489 1699 2769 2813 2997 3027
149 0 0 0 0 9 0 0 0 2 0 0 1 102 1076 499 259 333 430 568 774 862 924 1124 289 723 1500 1444 2019 2626 2992 3226
153 0 0 12 17 38 38 63 95 58 114 40 20 210 375 237 238 213 271 526 876 1398 1639 1392 1397 525 1044 1532 1896 2736 2909 3154
0 0 0 12 0 58 58 106 5 0 0 197 332 58 45 269 385 339 452 462 1205 1626 1727 1543 1177 629 2064 2110 2299 2636 2214 2318
0 0 0 0 4 15 64 19 89 79 20 14 132 300 533 628 716 928 770 813 1682 1224 841 699 562 1774 2847 2827 2782 3047 3111 3070
0 0 0 0 1 0 78 153 144 126 16 131 249 365 349 711 891 935 1150 983 1515 1589 1150 1151 1470 1846 2265 3089 3177 3055 3139 3654
0 0 0 0 0 0 36 167 184 183 122 254 374 331 603 804 1003 1078 1005 957 1211 1495 1922 2028 1773 1815 2094 2538 3586 3205 3305 3579
0 0 0 0 0 0 54 167 266 199 295 445 489 546 767 857 1058 1096 1060 939 1056 1046 1226 1533 1687 1793 2267 2655 2698 2984 3164 3240
0 0 0 0 0 0 19 63 246 247 132 541 562 477 612 792 1002 1215 1298 1109 948 951 1152 948 902 979 1135 1943 2709 2447 2530 2735
0 0 0 0 0 0 137 99 117 268 295 406 366 449 538 763 786 918 967 997 1029 1208 1255 1336 1535 1659 1661 1777 1951 2879 2848 3544